Find the Weather for any City, State or Zip Code, or Country:


Mobile Weather


Questions? Comments?
Contact Greg


Winchester Trails
Subdivision Website


Current Maps

Tropical (Hurricane)

Temperature

Heat Index

Windchill

Humidity

Radar

Dew Point

Wind

Visibility

Visible Satellite

Satellite

Fronts

Jet Stream

Flight Rules


Forecast Maps

Temperature Forecast

Maximum Temperature Forecast

Minimum Temperature Forecast

Dewpoint Forecast

Prevalent Weather

12Hr Probability of Precip.

Sky Cover


Health Maps

Houston Pollen/Mold Report

UV Forecast

Air Quality

Peak Air Quality Index


Aviation & NWS
Weather

NOAA Aviation Weather

Air Sports Net
Aviation Weather


SkyVector

Wunderground GA Weather

NWS Houston/Galveston

National Weather Service (main page)

National Hurricane Center


Miscellaneous

NOAA Historical Hurricane Tracks

Wunderground
Hurricane Archive


Harris Co. Flood Warning System

Harris Co. Storm Risk Calculator

U.S. Drought Monitor

TX Lake/Reservoir Data & Levels

Eric 'SciGuy' Berger Weather Blog

Dr. Jeff Masters Weather Blog

Houston Traffic

TxDOT Highway Conditions

Houston Electricity Outage Tracker

Houston Bayport Cruise Terminal Webcam

Galveston CruiseCam


This Station's Data

NOAA-Style Reports

Weather Detail

Daily Tabular Data


This Station's Position:
Lat. 29° 54' 14.18" N
Lon. 95° 34' 24.45" W
Elevation 112 ft (34.1 m)


Visit this station's partner in Cypress, 8sm west of here!


Weather Instruments:


Vantage Pro 2


Current Weather Conditions

This page refreshes automatically every 5 minutes and is best viewed at 1024x768 or higher resolution.
Powered by Ambient Weather Virtual Weather Station V15.00

Page last refreshed Sun March 1, 2015 at 9:29 pm CST (UTC -6) (2015-03-02 03:29 UTC/GMT/Zulu)

Metric & Other Conversions for Current Observations
Current Temp9 °CHigh Temp13.3 °CLow Temp9 °C
Current Dew Point7.8 °CHeat Index12.3 °CWind Chill9 °C
Barometer1025.1 mbarBarometer768.9 mmHgBarometer14.87 psi
Density Altitude:  -966 ft (-294.4 m)Pressure Altitude:  -214 ft (-65.2 m)
Barometer readings for a Standard Day (59.0 °F/15.0 °C @ sea level):  29.92" Hg, 1013.25 mbar, 757.83 mmHg, 14.70 psi


 CHAMBERS COUNTY  -  Dense Fog Advisory Dense Fog Advisory  
 GALVESTON COUNTY  -  Dense Fog Advisory Dense Fog Advisory  
 BRAZORIA COUNTY  -  Dense Fog Advisory Dense Fog Advisory  


Local Radar Other Radar Graphics Local Satellite
Click for larger image WunderMap®

High Definition Radar (KHOU)

Regional Radar
Click for larger image
Radar & Satellite Graphics by Weather Underground




National Weather Service Forecast for: Jersey Village TX
Issued by: National Weather Service Houston, TX
Updated: 6:20 pm CST Mar 1, 2015
 
Tonight

Chance Showers. Chance for Measurable Precipitation 30%
Chance
Showers
Monday

Chance Showers. Chance for Measurable Precipitation 30%
Chance
Showers
Monday
Night

Slight Chc Showers. Chance for Measurable Precipitation 20%
Slight Chc
Showers
Tuesday

Chance Showers. Chance for Measurable Precipitation 30%
Chance
Showers
Tuesday
Night

Slight Chc Showers. Chance for Measurable Precipitation 20%
Slight Chc
Showers
Wednesday

T-Storms Likely. Chance for Measurable Precipitation 60%
T-Storms
Likely
Wednesday
Night

Rain Likely. Chance for Measurable Precipitation 60%
Rain
Likely
Thursday

Chance Rain. Chance for Measurable Precipitation 40%
Chance
Rain
Thursday
Night

Mostly Cloudy
Mostly
Cloudy
Lo 50 °F Hi 57 °F Lo 57 °F Hi 74 °F Lo 65 °F Hi 70 °F Lo 35 °F Hi 42 °F Lo 33 °F

Hazardous Weather Outlook
 

Tonight
 
A 30 percent chance of showers. Areas of fog. Otherwise, cloudy, with a low around 50. North wind around 5 mph.
Monday
 
A 30 percent chance of showers. Patchy fog. Otherwise, cloudy, with a high near 57. North wind around 5 mph.
Monday Night
 
A 20 percent chance of showers. Mostly cloudy, with a low around 57. East wind around 5 mph becoming southeast after midnight.
Tuesday
 
A 30 percent chance of showers. Partly sunny, with a high near 74. South wind 5 to 15 mph.
Tuesday Night
 
A 20 percent chance of showers. Mostly cloudy, with a low around 65. South wind 5 to 10 mph.
Wednesday
 
Showers and thunderstorms likely, mainly after noon. Mostly cloudy, with a high near 70. Chance of precipitation is 60%.
Wednesday Night
 
Rain likely. Cloudy, with a low around 35. Breezy. Chance of precipitation is 60%.
Thursday
 
A 40 percent chance of rain. Mostly cloudy, with a high near 42. Breezy.
Thursday Night
 
Mostly cloudy, with a low around 33.
Friday
 
Partly sunny, with a high near 48.
Friday Night
 
A 20 percent chance of showers. Mostly cloudy, with a low around 38.
Saturday
 
A 30 percent chance of showers. Cloudy, with a high near 52.
Saturday Night
 
A 30 percent chance of showers. Cloudy, with a low around 42.
Sunday
 
A 30 percent chance of showers. Mostly cloudy, with a high near 60.

 

Forecast from NOAA-NWS for Jersey Village TX.

Follow this link for a current verbose area forecast discussion from the NWS.
Forecast Script by Saratoga Weather | Animated icons by Meteo Treviglio


Radar and Satellite Imagery


US Current Fronts w/Radar

Southcentral Infrared Satellite

US Jet Stream

Visible Satellite
Click to go to WUnderground
Sea Surface Temp & Tropical System Map
Map Graphics by Weather Underground


Rainfall Information
Yesterday's Rain: 0.03 in
Last Rainfall:
Surrounding Area Rainfall Data
NOAA Avg. Rainfall For: Month to Date
(1971-2000)
Month to Date
(1981-2010)
Year to Date
(1971-2000)
Year to Date
(1981-2010)
Jersey Village: 0.12 in
(0.03 in)
0.13 in
(0.02 in)
7 in
(-3.81 in)
7.04 in
(-3.85 in)
Intercontinental (KIAH) 0.1 in 0.11 in 6.76 in 6.69 in
Hobby (KHOU) 0.1 in 0.11 in 7.36 in 7.19 in
NOTE:  The numbers in parenthesis under the Jersey Village data above indicate how far ahead (green) or behind (red) this station's rain total is compared to the NOAA 1971-2000 and 1981-2010 climate normals data for today's date (Mar 01).


Other Current Regional Observations (METARs)

(Ordered by straight-line statute mile distance from this weather station)

A Few More Observations/METARs of Interest to Greg


Weather Almanac

NOAA/NWS Daily Historical Weather Browser
Major SE Texas Weather Events

Records and Normals for Mar 1
Temperature Forecast Normal Record
High 61° 66° 82°
(2006)
Low 63°
46°
30°
(2013)
Highs & Lows Observed at This Station
  Today Yesterday For 3/2015 For 2015
High Temp 56.0°F at 1:22pm 55.6°F at 3:52pm 56.0°F on 3/1/15 81.2°F on 2/9/15
Low Temp 48.2°F at 9:21pm 37.6°F at 4:49am 48.2°F on 3/1/15 28.8°F on 1/8/15
High Dew Point 54.0°F at 1:22pm 49.7°F at 11:53pm 54.0°F on 3/1/15 67.8°F on 2/22/15
Low Dew Point 46.0°F at 9:21pm 29.9°F at 2:31am 46.0°F on 3/1/15 11.2°F on 1/8/15
High Humidity 94% at 9:59am 89% at 8:18pm 94% on 3/1/15 98% on 1/2/15
Low Humidity 89% at 12:00am 63% at 12:05pm 89% on 3/1/15 24% on 1/18/15
High Heat Index 62.1°F at 1:22pm 58.8°F at 4:12pm 62.1°F on 3/1/15 81.5°F on 2/22/15
High Barometer 30.15in at 9:14pm 30.23in at 12:29am 30.15in on 3/1/15 30.57in on 1/8/15
Low Barometer 30.06in at 4:29am 30.09in at 6:44pm 30.06in on 3/1/15 29.71in on 2/25/15
High Wind Speed 0mph at 12:00am 0mph at 12:00am 0mph on 3/1/15 21mph on 1/22/15
High Wind Gust 0mph at 12:00am 0mph at 12:00am 0mph on 3/1/15 21mph on 1/22/15
Low Wind Chill 48.2°F at 9:21pm 37.6°F at 4:49am 48.2°F on 3/1/15 20.6°F on 1/8/15

Sun & Moon
Sunrise:  6:46am Sunset:  6:19pm Moon Phase:
85%
Moonrise:  3:08pm Moonset:  4:02am
Star Chart...

 

Local Trend Graphs


MesoNet Local Weather Exchange® Network

Station ID

City 
(Click for Map Location)

Neighborhood 
(Click for History)
Last Update
(Date & Time)

Temp
 (°)

Dew
Point (°)
Humidity 
(%)
Wind 
(mph)
From
the
Gust
(mph) 
Pressure (in) Hourly
Rain (in)
KTXCYPRE54 Cypress Canyon Lakes West 03/01 21:20:02 47.3 46.0 96 7 NNE 11 30.35 0.00
KTXCYPRE93 Cypress Canyon Lakes West 03/01 21:05:35 52.3 42.0 72 0 North 0 30.12 0.00
KTXHOUST197 Cypress Canyon Lakes West 03/01 21:19:59 47.6 47.0 98 1 South 8 30.18 0.00
KTXCYPRE65 Cypress Heritage Towne Lake 03/01 21:19:57 47.2 46.0 97 4 NNE 10 30.25 0.00
KTXCYPRE87 Cypress Bridgeland 03/01 21:16:21 50.2 47.0 89 0 North 0 30.32 0.00
KTXCYPRE21 Cypress Bridgeland Community 03/01 21:20:00 47.8 47.0 96 4 NNW 7 30.25 0.00
KTXCYPRE58 Cypress Lakeland Village 03/01 21:19:43 46.9 46.0 98 1 West 3 30.27 0.00
KTXCYPRE73 Cypress Bridgeland / Moonlit Haven 03/01 21:18:06 46.6 46.0 96 3 NW 0 30.22 0.00
KTXCYPRE81 Cypress Bridgeland - Settlers Shore 03/01 21:19:50 47.7 48.0 99 1 WNW 2 29.96 0.00
KTXCYPRE12 Cypress Blackhorse Ranch South 03/01 21:19:58 47.6 46.0 93 0

North 4 30.21 0.00
KTXCYPRE17 Cypress Blackhorse Ranch 03/01 21:19:54 46.9 46.0 95 3 NNE 11 30.28 0.00
KTXHOUST144 Houston Copperfield - Copper Lakes - Waterford 03/01 21:20:01 47.6 46.0 96 2 NNE 2 30.22 0.00
KTXHOUST205 Houston Copperfield - Copper Lakes - ManorSide 03/01 21:20:01 47.8 48.0 99 3 NE 6 30.25 0.00
KTXCYPRE74 Cypress The Niederberger's 03/01 21:18:19 46.9 44.0 91 4 NNE 0 30.20 0.00
KTXHOUST460 Houston Barker Village 03/01 21:16:33 51.1 47.0 87 0 North 0 30.32 0.00
KTXHOUST156 Houston Southcreek, Copperfield 03/01 21:15:04 48.2 47.0 97 2 NE 6 30.24 0.00
KTXHOUST159 Houston Copper Village 03/01 21:19:57 48.4 47.0 96 3 North 8 30.18 0.00
KTXHOUST179 Houston Sommerall 03/01 21:18:22 47.9 46.0 94 0 NE 0 30.24 0.00
KTXCYPRE41 Cypress Cypress Mill Estates 03/01 21:15:44 47.1 47.0 100 0 South 0 30.22 0.00
KTXCYPRE47 Cypress Fairfield - Inwood Park 03/01 21:19:09 46.8 47.0 99 4 NE 5 30.14 0.00
KTXHOUST241 Houston Westminster Landing 03/01 21:10:18 48.0 48.0 98 3 NE 3 30.23 0.00
KTXCYPRE63 Cypress Cypress Mill 2 03/01 21:19:52 46.8 46.0 99 2 North 3 29.93 0.00
KTXDRYCR1 Cypress Dry Creek Airport 03/01 21:18:50 46.9 46.0 97 6 North 9 30.25 0.00
KTXCYPRE97 Cypress Coles Crossing 03/01 21:07:10 50.4 50.0 98 3 NNE 0 30.08 0.00
MUR110 Cypress MesoWest CYPRES TX US UPR 03/01 20:10:00 51.0 0.0 0 0 North 0 0.00 0.00
KTXHOUST271 Houston Middlegate Village 03/01 21:20:02 48.0 48.0 99 4 West 6 30.26 0.00
KTXCYPRE11 Cypress Weiser Airpark 03/01 21:19:47 47.1 44.0 88 0 NE 0 30.27 0.00
KTXCYPRE79 Cypress Cypress Chase 03/01 21:19:59 48.0 48.0 99 0 NNW 2 30.23 0.00
KTXCYPRE90 Cypress Fairfield - Garden Grove 03/01 21:20:02 46.9 47.0 99 3 NE 9 29.72 0.00
KTXHOUST273 Houston Westglen/Bear Creek 03/01 21:19:31 48.7 48.0 99 5 NE 8 30.30 0.00
KTXCYPRE70 Cypress Cypress Point Lake Estates 03/01 21:08:33 46.8 45.0 95 5 NNW 0 30.25 0.00
KTXCYPRE4 Cypress Moore Weather 03/01 21:01:06 47.1 47.0 100 0 NE 0 30.24 0.00
KTXCYPRE62 Cypress Fairfield, The Lakes 03/01 21:17:12 47.1 46.0 97 5 NNW 8 30.28 0.00
KTXHOUST491 Houston West Lake 03/01 21:18:38 48.0 45.0 89 5 NNE 0 30.02 0.00
KTXHOUST352 Houston Villa Toscana 03/01 21:19:42 49.2 48.0 95 0 SSW 1 30.21 0.00
KTXHOCKL11 Hockley Rocky Creek Estates 03/01 21:19:16 48.2 48.0 99 7 North 7 30.22 0.00
KTXHOUST400 Houston Lakes Of Pine Forest 03/01 21:16:16 50.9 49.0 94 0 North 0 30.33 0.00
MD4691 Cypress APRSWXNET Cypress TX US 03/01 20:38:00 46.0 44.0 92 0 NE 0 30.29 0.00
KTXCYPRE89 Cypress Trails Of Fairfield 03/01 21:16:33 47.3 46.0 96 0 North 0 30.22 0.00
KTXCYPRE88 Cypress Northlake Forest 48.2 48.2 46.0 92 0 North 0 30.33 0.00